Time,TemperatureF,DewpointF,PressureIn,WindDirection,WindDirectionDegrees,WindSpeedMPH,WindSpeedGustMPH,Humidity,HourlyPrecipIn,Conditions,Clouds,dailyrainin,SoftwareType,DateUTC
2013-08-28 00:06:00,61.2,45.8,30.16,East,90,1.7,-999.0,57,-99.99,,,0.00,Acu-Link.com,2013-08-28 06:06:00,
2013-08-28 00:22:00,61.0,45.7,30.16,SSE,157,2.7,-999.0,57,-99.99,,,0.00,Acu-Link.com,2013-08-28 06:22:00,
2013-08-28 00:37:00,59.9,45.1,30.16,SSE,157,2.2,-999.0,58,-99.99,,,0.00,Acu-Link.com,2013-08-28 06:37:00,
2013-08-28 00:52:00,59.7,45.3,30.16,ESE,112,2.2,-999.0,59,-99.99,,,0.00,Acu-Link.com,2013-08-28 06:52:00,
2013-08-28 01:07:00,59.9,45.5,30.16,SSE,157,1.7,-999.0,59,-99.99,,,0.00,Acu-Link.com,2013-08-28 07:07:00,
2013-08-28 01:22:00,58.5,46.4,30.17,ESE,112,0.0,-999.0,64,-99.99,,,0.00,Acu-Link.com,2013-08-28 07:22:00,
2013-08-28 01:37:00,57.4,46.9,30.18,ESE,112,2.7,-999.0,68,-99.99,,,0.00,Acu-Link.com,2013-08-28 07:37:00,
2013-08-28 01:53:00,56.5,46.8,30.18,ESE,112,2.2,-999.0,70,-99.99,,,0.00,Acu-Link.com,2013-08-28 07:53:00,
2013-08-28 02:08:00,55.8,46.2,30.18,ESE,112,1.7,-999.0,70,-99.99,,,0.00,Acu-Link.com,2013-08-28 08:08:00,
2013-08-28 02:23:00,55.2,45.2,30.18,ESE,112,0.0,-999.0,69,-99.99,,,0.00,Acu-Link.com,2013-08-28 08:23:00,
2013-08-28 02:38:00,54.3,45.1,30.18,ESE,112,2.7,-999.0,71,-99.99,,,0.00,Acu-Link.com,2013-08-28 08:38:00,
2013-08-28 02:54:00,55.9,45.1,30.18,SSE,157,2.7,-999.0,67,-99.99,,,0.00,Acu-Link.com,2013-08-28 08:54:00,
2013-08-28 03:09:00,54.5,44.5,30.18,ESE,112,1.7,-999.0,69,-99.99,,,0.00,Acu-Link.com,2013-08-28 09:09:00,
2013-08-28 03:24:00,54.1,44.5,30.18,SSE,157,2.2,-999.0,70,-99.99,,,0.00,Acu-Link.com,2013-08-28 09:24:00,
2013-08-28 03:39:00,53.8,44.2,30.18,SSE,157,1.7,-999.0,70,-99.99,,,0.00,Acu-Link.com,2013-08-28 09:39:00,
2013-08-28 03:54:00,53.8,44.2,30.17,SSE,157,1.1,-999.0,70,-99.99,,,0.00,Acu-Link.com,2013-08-28 09:54:00,
2013-08-28 04:10:00,55.8,45.0,30.17,SSE,157,3.2,-999.0,67,-99.99,,,0.00,Acu-Link.com,2013-08-28 10:10:00,
2013-08-28 04:25:00,54.1,44.9,30.17,West,270,0.0,-999.0,71,-99.99,,,0.00,Acu-Link.com,2013-08-28 10:25:00,
2013-08-28 04:40:00,54.0,44.4,30.17,South,180,2.7,-999.0,70,-99.99,,,0.00,Acu-Link.com,2013-08-28 10:40:00,
2013-08-28 04:55:00,55.0,44.6,30.16,South,180,3.7,-999.0,68,-99.99,,,0.00,Acu-Link.com,2013-08-28 10:55:00,
2013-08-28 05:11:00,54.0,44.4,30.17,ENE,67,3.2,-999.0,70,-99.99,,,0.00,Acu-Link.com,2013-08-28 11:11:00,
2013-08-28 05:26:00,54.5,44.5,30.16,NE,45,1.7,-999.0,69,-99.99,,,0.00,Acu-Link.com,2013-08-28 11:26:00,
2013-08-28 05:41:00,54.1,44.5,30.17,NNE,22,0.0,-999.0,70,-99.99,,,0.00,Acu-Link.com,2013-08-28 11:41:00,
2013-08-28 05:57:00,52.7,44.3,30.17,NNE,22,0.0,-999.0,73,-99.99,,,0.00,Acu-Link.com,2013-08-28 11:57:00,
2013-08-28 06:12:00,52.0,44.3,30.18,NNE,22,2.2,-999.0,75,-99.99,,,0.00,Acu-Link.com,2013-08-28 12:12:00,
2013-08-28 06:27:00,51.1,43.8,30.18,NNE,22,0.0,-999.0,76,-99.99,,,0.00,Acu-Link.com,2013-08-28 12:27:00,
2013-08-28 06:42:00,50.9,44.0,30.19,NNE,22,1.1,-999.0,77,-99.99,,,0.00,Acu-Link.com,2013-08-28 12:42:00,
2013-08-28 06:57:00,50.5,43.6,30.19,NNE,22,0.0,-999.0,77,-99.99,,,0.00,Acu-Link.com,2013-08-28 12:57:00,
2013-08-28 07:13:00,51.1,44.5,30.20,NNE,22,0.0,-999.0,78,-99.99,,,0.00,Acu-Link.com,2013-08-28 13:13:00,
2013-08-28 07:28:00,55.6,48.2,30.20,NNE,22,0.0,-999.0,76,-99.99,,,0.00,Acu-Link.com,2013-08-28 13:28:00,
2013-08-28 07:43:00,61.2,49.7,30.20,NNE,22,0.0,-999.0,66,-99.99,,,0.00,Acu-Link.com,2013-08-28 13:43:00,
2013-08-28 07:59:00,65.7,51.4,30.21,NNE,22,0.0,-999.0,60,-99.99,,,0.00,Acu-Link.com,2013-08-28 13:59:00,
2013-08-28 08:14:00,67.8,51.5,30.22,WNW,292,0.0,-999.0,56,-99.99,,,0.00,Acu-Link.com,2013-08-28 14:14:00,
2013-08-28 08:29:00,71.8,52.7,30.22,NNE,22,2.2,-999.0,51,-99.99,,,0.00,Acu-Link.com,2013-08-28 14:29:00,
2013-08-28 08:44:00,74.3,53.3,30.22,NNE,22,2.2,-999.0,48,-99.99,,,0.00,Acu-Link.com,2013-08-28 14:44:00,
2013-08-28 09:00:00,71.6,49.7,30.22,NNE,22,3.2,-999.0,46,-99.99,,,0.00,Acu-Link.com,2013-08-28 15:00:00,
2013-08-28 09:18:00,70.5,51.5,30.22,North,0,2.7,-999.0,51,-99.99,,,0.00,Acu-Link.com,2013-08-28 15:18:00,
2013-08-28 09:33:00,71.4,51.8,30.21,NNE,22,3.2,-999.0,50,-99.99,,,0.00,Acu-Link.com,2013-08-28 15:33:00,
2013-08-28 09:48:00,73.9,51.2,30.22,SW,225,2.2,-999.0,45,-99.99,,,0.00,Acu-Link.com,2013-08-28 15:48:00,
2013-08-28 10:03:00,74.7,51.3,30.22,SSW,202,2.2,-999.0,44,-99.99,,,0.00,Acu-Link.com,2013-08-28 16:03:00,
2013-08-28 10:18:00,74.7,51.3,30.21,West,270,2.7,-999.0,44,-99.99,,,0.00,Acu-Link.com,2013-08-28 16:18:00,
2013-08-28 10:33:00,75.0,51.0,30.20,NW,315,2.2,-999.0,43,-99.99,,,0.00,Acu-Link.com,2013-08-28 16:33:00,
2013-08-28 10:49:00,76.8,52.6,30.20,West,270,4.2,-999.0,43,-99.99,,,0.00,Acu-Link.com,2013-08-28 16:49:00,
2013-08-28 11:04:00,77.9,52.3,30.20,WSW,247,3.7,-999.0,41,-99.99,,,0.00,Acu-Link.com,2013-08-28 17:04:00,
2013-08-28 11:19:00,78.4,51.4,30.20,SW,225,3.2,-999.0,39,-99.99,,,0.00,Acu-Link.com,2013-08-28 17:19:00,
2013-08-28 11:34:00,79.2,50.7,30.20,South,180,4.7,-999.0,37,-99.99,,,0.00,Acu-Link.com,2013-08-28 17:34:00,
2013-08-28 11:49:00,79.9,51.3,30.18,SW,225,2.2,-999.0,37,-99.99,,,0.00,Acu-Link.com,2013-08-28 17:49:00,
2013-08-28 12:04:00,81.0,52.2,30.17,WNW,292,4.7,-999.0,37,-99.99,,,0.00,Acu-Link.com,2013-08-28 18:04:00,
2013-08-28 12:20:00,80.8,52.1,30.17,WNW,292,3.7,-999.0,37,-99.99,,,0.00,Acu-Link.com,2013-08-28 18:20:00,
2013-08-28 12:35:00,82.6,52.9,30.16,SSW,202,3.2,-999.0,36,-99.99,,,0.00,Acu-Link.com,2013-08-28 18:35:00,
2013-08-28 12:50:00,83.5,51.3,30.15,SW,225,2.7,-999.0,33,-99.99,,,0.00,Acu-Link.com,2013-08-28 18:50:00,
2013-08-28 13:06:00,84.7,51.5,30.15,SSW,202,3.7,-999.0,32,-99.99,,,0.00,Acu-Link.com,2013-08-28 19:06:00,
2013-08-28 13:21:00,86.0,49.1,30.15,West,270,5.8,-999.0,28,-99.99,,,0.00,Acu-Link.com,2013-08-28 19:21:00,
2013-08-28 13:36:00,85.3,47.5,30.14,West,270,2.2,-999.0,27,-99.99,,,0.00,Acu-Link.com,2013-08-28 19:36:00,
2013-08-28 13:52:00,86.4,46.4,30.14,WNW,292,4.7,-999.0,25,-99.99,,,0.00,Acu-Link.com,2013-08-28 19:52:00,
2013-08-28 14:07:00,86.9,46.8,30.12,NE,45,3.2,-999.0,25,-99.99,,,0.00,Acu-Link.com,2013-08-28 20:07:00,
2013-08-28 14:22:00,87.8,47.6,30.11,WNW,292,7.8,-999.0,25,-99.99,,,0.00,Acu-Link.com,2013-08-28 20:22:00,
2013-08-28 14:37:00,87.3,44.9,30.10,WNW,292,3.2,-999.0,23,-99.99,,,0.00,Acu-Link.com,2013-08-28 20:37:00,
2013-08-28 14:52:00,87.8,45.4,30.10,SW,225,6.3,-999.0,23,-99.99,,,0.00,Acu-Link.com,2013-08-28 20:52:00,
2013-08-28 15:07:00,88.0,47.7,30.10,NNW,337,20.2,-999.0,25,-99.99,,,0.00,Acu-Link.com,2013-08-28 21:07:00,
2013-08-28 15:23:00,88.0,44.4,30.08,West,270,5.8,-999.0,22,-99.99,,,0.00,Acu-Link.com,2013-08-28 21:23:00,
2013-08-28 15:38:00,88.9,45.1,30.08,WSW,247,4.2,-999.0,22,-99.99,,,0.00,Acu-Link.com,2013-08-28 21:38:00,
2013-08-28 15:53:00,88.5,44.8,30.07,WNW,292,6.8,-999.0,22,-99.99,,,0.00,Acu-Link.com,2013-08-28 21:53:00,
2013-08-28 16:08:00,89.1,45.3,30.07,NNE,22,3.7,-999.0,22,-99.99,,,0.00,Acu-Link.com,2013-08-28 22:08:00,
2013-08-28 16:23:00,86.4,47.4,30.09,ESE,112,15.5,-999.0,26,-99.99,,,0.00,Acu-Link.com,2013-08-28 22:23:00,
2013-08-28 16:38:00,79.5,53.7,30.09,SSE,157,7.3,-999.0,41,-99.99,,,0.00,Acu-Link.com,2013-08-28 22:38:00,
2013-08-28 16:53:00,82.4,58.9,30.08,SE,135,4.7,-999.0,45,-99.99,,,0.00,Acu-Link.com,2013-08-28 22:53:00,
2013-08-28 17:08:00,83.8,54.0,30.08,ESE,112,3.7,-999.0,36,-99.99,,,0.00,Acu-Link.com,2013-08-28 23:08:00,
2013-08-28 17:24:00,80.6,51.9,30.09,SE,135,4.7,-999.0,37,-99.99,,,0.00,Acu-Link.com,2013-08-28 23:24:00,
2013-08-28 17:39:00,80.6,52.6,30.09,South,180,5.8,-999.0,38,-99.99,,,0.00,Acu-Link.com,2013-08-28 23:39:00,
2013-08-28 17:54:00,81.0,50.7,30.10,SE,135,6.8,-999.0,35,-99.99,,,0.00,Acu-Link.com,2013-08-28 23:54:00,
2013-08-28 18:09:00,78.4,50.0,30.08,South,180,10.4,-999.0,37,-99.99,,,0.00,Acu-Link.com,2013-08-29 00:09:00,
2013-08-28 18:24:00,77.5,51.3,30.11,SSE,157,11.9,-999.0,40,-99.99,,,0.00,Acu-Link.com,2013-08-29 00:24:00,
2013-08-28 18:39:00,76.1,50.7,30.10,SSE,157,7.8,-999.0,41,-99.99,,,0.00,Acu-Link.com,2013-08-29 00:39:00,
2013-08-28 18:54:00,78.4,52.1,30.12,South,180,8.9,-999.0,40,-99.99,,,0.00,Acu-Link.com,2013-08-29 00:54:00,
2013-08-28 19:09:00,77.7,50.8,30.11,SE,135,4.7,-999.0,39,-99.99,,,0.00,Acu-Link.com,2013-08-29 01:09:00,
2013-08-28 19:25:00,77.2,51.0,30.14,SSE,157,3.7,-999.0,40,-99.99,,,0.00,Acu-Link.com,2013-08-29 01:25:00,
2013-08-28 19:40:00,76.1,51.3,30.13,SSE,157,1.7,-999.0,42,-99.99,,,0.00,Acu-Link.com,2013-08-29 01:40:00,
2013-08-28 20:00:00,74.7,51.3,30.12,East,90,1.1,-999.0,44,-99.99,,,0.00,Acu-Link.com,2013-08-29 02:00:00,
2013-08-28 20:15:00,72.9,54.2,30.13,SSE,157,3.2,-999.0,52,-99.99,,,0.00,Acu-Link.com,2013-08-29 02:15:00,
2013-08-28 20:30:00,71.2,53.7,30.13,South,180,4.2,-999.0,54,-99.99,,,0.00,Acu-Link.com,2013-08-29 02:30:00,
2013-08-28 20:48:00,70.0,53.1,30.14,South,180,4.2,-999.0,55,-99.99,,,0.00,Acu-Link.com,2013-08-29 02:48:00,
2013-08-28 21:03:00,68.4,52.1,30.15,South,180,2.7,-999.0,56,-99.99,,,0.00,Acu-Link.com,2013-08-29 03:03:00,
2013-08-28 21:19:00,68.2,50.9,30.16,SSE,157,3.2,-999.0,54,-99.99,,,0.00,Acu-Link.com,2013-08-29 03:19:00,
2013-08-28 21:35:00,68.0,51.2,30.18,NNE,22,3.2,-999.0,55,-99.99,,,0.00,Acu-Link.com,2013-08-29 03:35:00,
2013-08-28 21:53:00,66.7,51.0,30.17,NNE,22,2.7,-999.0,57,-99.99,,,0.00,Acu-Link.com,2013-08-29 03:53:00,
2013-08-28 22:18:00,65.8,50.1,30.19,SE,135,3.7,-999.0,57,-99.99,,,0.00,Acu-Link.com,2013-08-29 04:18:00,
2013-08-28 22:35:00,63.5,48.9,30.20,ESE,112,2.7,-999.0,59,-99.99,,,0.00,Acu-Link.com,2013-08-29 04:35:00,
2013-08-28 22:51:00,62.8,49.1,30.21,ESE,112,0.0,-999.0,61,-99.99,,,0.00,Acu-Link.com,2013-08-29 04:51:00,
2013-08-28 23:06:00,61.9,47.9,30.21,ESE,112,1.1,-999.0,60,-99.99,,,0.00,Acu-Link.com,2013-08-29 05:06:00,
2013-08-28 23:22:00,61.3,47.7,30.21,WNW,292,2.7,-999.0,61,-99.99,,,0.00,Acu-Link.com,2013-08-29 05:22:00,
2013-08-28 23:37:00,59.9,48.1,30.22,South,180,2.2,-999.0,65,-99.99,,,0.00,Acu-Link.com,2013-08-29 05:37:00,
2013-08-28 23:52:00,59.4,47.6,30.23,ESE,112,0.0,-999.0,65,-99.99,,,0.00,Acu-Link.com,2013-08-29 05:52:00,